STARLINK-31066 (58676 NORAD) Tracking and Keplerian Element Data

This shows tracking and keplerian element data for the satellite.

Feedback or suggestion? Click here.




ElementValue
Catalog58676
NameSTARLINK-31066
Epoch Orbit348
Epoch Day12.91667824
Epoch Year2024
RAAN203.6902
Inclination43
Eccentricity0.0001702
Argument of Perigee276.3738
Mean Anonmoly122.9836
Mean Motion15.75255385
Decay Rate-0.01091439
L11 58676U 23211K 24012.91667824 -.01091439 00000+0 -78479-2 0 9998
L22 58676 43.0000 203.6902 0001702 276.3738 122.9836 15.75255385 3481



Live tracking and technical data element details for STARLINK-31066 (NORAD 58676). STARLINK-31066 can be tracked NOW for your location showing map with azimuth and elevation plus other details from your city location.







IsCatalogInMostPopularTable: catalog: 58676, numindb: 22
Update: records affected: 1



GetName: 58676 STARLINK-31066

Hit Count: updated at: Wed, 17 Apr 2024 02:50:36 GMT